Flag for Hungary Weather past 2 weeks in Győr, Hungary

Now
59 °F

Cool.


Feels Like: 59 °F
Forecast: 54 / 64 °F
Wind: 1 mph from Northwest

Location: Gyor

Current Time: Oct 2, 2014 at 12:31:03 PM

Latest Report: Oct 2, 2014 at 11:00 AM


Visibility: N/A

Pressure: 30.32 "Hg

Humidity: 97%

Dew point: 58 °F

Location of GyőrLocation

Historic Weather in Győr — Graph

°F

Győr temperature yesterday

Maximum temperature yesterday: 67 °F (at 2:00 PM)
Minimum temperature yesterday: 53 °F (at 5:00 AM)
Average temperature yesterday: 59 °F

Past Weeks' High & Low Weather Summary

 TemperatureHumidityPressure
High76 °F (Sep 21, 3:00 PM)100% (Sep 28, 8:00 AM)30.43 "Hg (Sep 28, 8:00 AM)
Low38 °F (Sep 24, 7:00 AM)45% (Sep 29, 4:00 PM)29.79 "Hg (Sep 22, 4:00 AM)
Average58 °F81%30.13 "Hg
* Reported Sep 17 11:00 AM — Oct 2 11:00 AM, Győr, Weather by CustomWeather, © 2014

Note: Actual official high and low records may vary slightly from our data, if they occured in-between our weather recording intervals... More about our weather records

Advertising

Győr weather history for previous 24 hours

 ConditionsComfort  
Time TempWeatherWind HumidityBarometerVisibility
11:00 AM
Oct 2
59 °FCool.1 mph97%30.32 "HgN/A
10:00 AM58 °FCool.1 mph98%30.32 "HgN/A
9:00 AM58 °FCool.1 mph99%30.32 "HgN/A
8:00 AM58 °FCool.No wind99%30.31 "HgN/A
7:00 AM58 °FCool.1 mph99%30.30 "HgN/A
6:00 AM58 °FCool.No wind99%30.30 "HgN/A
5:00 AM58 °FCool.No wind98%30.29 "HgN/A
4:00 AM58 °FCool.1 mph98%30.29 "HgN/A
3:00 AM59 °FCool.No wind98%30.29 "HgN/A
2:00 AM59 °FCool.No wind98%30.29 "HgN/A
1:00 AM59 °FCool.No wind98%30.29 "HgN/A
12:00 AM59 °FCool.No wind98%30.29 "HgN/A
11:00 PM
Oct 1
60 °FCool.No wind98%30.28 "HgN/A
10:00 PM60 °FCool.No wind97%30.28 "HgN/A
9:00 PM60 °FCool.1 mph97%30.28 "HgN/A
8:00 PM61 °FCool.1 mph97%30.28 "HgN/A
7:00 PM61 °FCool.2 mph96%30.27 "HgN/A
6:00 PM62 °FCool.No wind94%30.28 "HgN/A
5:00 PM63 °FMild.1 mph89%30.27 "HgN/A
4:00 PM65 °FMild.1 mph83%30.26 "HgN/A
3:00 PM66 °FMild.2 mph78%30.26 "HgN/A
2:00 PM67 °FMild.1 mph75%30.26 "HgN/A
1:00 PM66 °FMild.1 mph77%30.27 "HgN/A
12:00 PM65 °FMild.1 mph79%30.28 "HgN/A
Weather by CustomWeather, © 2014

See weather overviewHow to use our weather pages